Location: S�deilles
(46.7500°N, 6.9329°E)
Time: 10:50:42
(UTC+00:00)

SL-08 RB Rocket - Pass Details

Date: 08 March 2021
Orbit: 646 x 684 km, 97.8° (Epoch: 23 April)

Event Time Altitude Azimuth Distance (km) Brightness Sun altitude
Rises 18:12:19 0° 151° (SSE) 2,975 6.7 -8.4°
Reaches altitude 10° 18:14:34 10° 146° (SE) 2,074 5.9 -8.8°
Maximum altitude 18:18:56 50° 71° (ENE) 846 3.9 -9.5°
Drops below altitude 10° 18:23:24 10° 357° (N) 2,112 6.4 -10.3°
Sets 18:25:42 0° 352° (N) 3,037 7.3 -10.7°
